Weather in Chavakachcheri

Sri Lanka     9°38′59″N   80°02′25″E
temp.,
°C
wind,
m/s
gust,
m/s
humid.,
%
clouds,
%
prec.,
mm/h
press.,
hPa
HPBL,
m
18 may, tue
tue1823:30+30s787663 0.0 1008734
02:30+29ssw797644 0.1 1006911
05:30+29ssw897644 0.1 1007990
08:30+30ssw787033 0.0 10091052
11:30+31ssw776799 0.0 10081131
14:30+31ssw77660 0.0 1006949
17:30+30s7873100 0.0 1006605
20:30+30s7975100 0.0 1008709
19 may, wed
wed1923:30+30ssw897768 0.0 1008923
02:30+29ssw81075100 0.0 10061004
05:30+30ssw91174100 0.0 10071058
08:30+31sw81071100 0.0 10081072
11:30+31sw996987 0.0 10081221
14:30+31ssw996983 0.1 10051088
17:30+30s91176100 0.1 1006814
20:30+30ssw91278100 0.0 1007862
20 may, thu
thu2023:30+29ssw10127890 0.0 10081070
02:30+29ssw91277100 0.0 10061181
05:30+29sw101277100 0.1 1006989
08:30+30sw91075100 0.1 10091059
11:30+31sw897079 0.1 10091172
14:30+31sw897095 0.0 10061130
17:30+30ssw8107493 0.0 1006848
20:30+30ssw1012799 0.2 1008811
21 may, fri
fri2123:30+29ssw9127893 1.4 1008899
02:30+25nw81093100 9.3 1008466
05:30+26wsw2391100 19.4 1008253
08:30+27sw2383100 0.6 1010198
11:30+28wsw3479100 4.1 1009320
14:30+29wnw2371100 1.6 1007693
17:30+29sw4674100 1.6 1007573
20:30+29sw797619 0.0 1009792
22 may, sat
sat2223:30+29sw81077100 0.3 1009859
02:30+28sw91080100 6.6 1006819
05:30+29sw81080100 15.4 1007865
08:30+29sw7977100 0.8 1009887
11:30+31sw9117194 0.8 10081212
14:30+30sw911725 0.0 10061184
17:30+29ssw1012775 0.0 1006796
20:30+29ssw10148047 0.0 1007852